{"data":{"norad_id":55148,"epoch":"2026-09-19T22:12:35.328096Z","epoch_age_seconds":71554,"freshness":"FRESH","line1":"1 55148U 23004J   26262.92540889  .00000036  00000+0  64148-4 0  9990","line2":"2 55148  87.8918 301.3760 0001382  68.8894 291.2383 13.13470679182610","mean_motion":13.13470679,"eccentricity":0.0001382,"inclination_deg":87.8918,"raan_deg":301.376,"arg_perigee_deg":68.8894,"mean_anomaly_deg":291.2383,"bstar":6.4148e-5,"rev_number":18261,"period_min":109.63320483837,"perigee_km":1208.7141371005,"apogee_km":1210.8114326011,"semimajor_km":7587.8997848508,"source":"CELESTRAK","updated_at":"2026-09-20T09:00:44.751663Z"}}